Flag for Canada Weather past 2 weeks in Dawson City, Yukon Territory, Canada

Now
46 °F

Mostly cloudy.


Feels Like: 46 °F
Forecast: 40 / 60 °F
Wind: 2 mph from West

Location: Dawson

Current Time: Aug 30, 2014 at 5:58:40 PM

Latest Report: Aug 30, 2014 at 5:00 PM


Visibility: 20 mi

Pressure: 29.67 "Hg

Humidity: 76%

Dew point: 39 °F

Location of Dawson CityLocation

Historic Weather in Dawson City — Graph

°F

Dawson City temperature yesterday

Maximum temperature yesterday: 63 °F (at 5:00 PM)
Minimum temperature yesterday: 41 °F (at 8:00 AM)
Average temperature yesterday: 53 °F

Past Weeks' High & Low Weather Summary

 TemperatureHumidityPressure
High70 °F (Aug 16, 6:00 PM)100% (Aug 16, 6:00 AM)30.28 "Hg (Aug 16, 6:00 AM)
Low37 °F (Aug 21, 6:00 AM)33% (Aug 16, 6:00 PM)29.48 "Hg (Aug 29, 6:00 PM)
Average54 °F76%29.87 "Hg
* Reported Aug 15 5:00 PM — Aug 30 5:00 PM, Dawson City, Weather by CustomWeather, © 2014

Note: Actual official high and low records may vary slightly from our data, if they occured in-between our weather recording intervals... More about our weather records

Advertising

Dawson City weather history for previous 24 hours

 ConditionsComfort  
Time TempWeatherWind HumidityBarometerVisibility
5:00 PM
Aug 30
46 °FMostly cloudy.2 mph76%29.67 "Hg20 mi
4:00 PM46 °FMostly cloudy.5 mph82%29.67 "Hg10 mi
3:00 PM46 °FCloudy.3 mph82%29.67 "Hg10 mi
2:00 PM43 °FLight rain. Cloudy.6 mph93%29.67 "Hg5 mi
1:00 PM41 °FLight rain. Low clouds.6 mph93%29.67 "Hg3 mi
12:00 PM41 °FLight rain. Fog.8 mph87%29.67 "Hg3 mi
11:00 AM41 °FLight rain. Fog.7 mph93%29.65 "Hg3 mi
10:00 AM43 °FLight rain. Fog.6 mph93%29.64 "Hg5 mi
9:00 AM43 °FLight rain. Fog.7 mph93%29.63 "Hg15 mi
8:00 AM45 °FScattered showers. Fog.6 mph87%29.60 "Hg20 mi
7:00 AM45 °FFog.5 mph93%29.59 "Hg15 mi
6:00 AM45 °FFog.No wind100%29.58 "Hg15 mi
8:00 PM
Aug 29
52 °FSprinkles. Mostly cloudy.6 mph94%29.52 "Hg20 mi
7:00 PM54 °FSprinkles. Mostly cloudy.13 mph82%29.51 "Hg20 mi
6:45 PM57 °FSprinkles. Mostly cloudy.9 mph67%29.49 "Hg20 mi
6:00 PM61 °FScattered showers. Mostly cloudy.No wind59%29.48 "Hg20 mi
5:00 PM63 °FBroken clouds.6 mph49%29.49 "Hg20 mi
Weather by CustomWeather, © 2014

See weather overviewHow to use our weather pages